星链-37455(STARLINK-37455)

导读

STARLINK-37455(NORAD编号69299)是美国SpaceX公司星链星座的第二代V2 Mini通信卫星,于2026年3月14日随猎鹰9号火箭执行星链10-48任务,从卡纳维拉尔角太空军基地发射入轨,是该批次29颗同型卫星之一。 该卫星属于低轨通信卫星,采用优化型V2 Mini平台,搭载激光星间链路,支持Ku/Ka频段通信及手机直连服务,目前运行于约550公里高度的近地轨道,轨道倾角约53度,在轨状态稳定,主要承担为全球用户提供低时延、高速率星链互联网接入的任务,是星链第二代组网扩容的组成部分。

基本信息
目录编号:
69299
目录名称:
STARLINK-37455
国际标识:
2026-119D
轨道中心:
EARTH
卫星名称:
星链-37455
卫星全名:
星链-37455(STARLINK-37455)
卫星状态:
在轨 (已飞行98 天)
发射日期:
2026-05-30 UTC
国别 :
美国 (US)
星等 :
--
轨道信息
数据来源 国际轨道数据 AOE轨道数据
星历时间 2026-09-04T08:22:20+0800
1天前
查看轨道信息
2026-09-01T23:00:00+0800
3天前
查看轨道信息
半长轴 6843.667km 6843.684km
偏心率 0.0001857 0.0001278
轨道倾角 97.284° 97.286°
近地点辐角 111.605° 105.742°
升交点赤经 271.935° 269.580°
平近点角 248.539° 26.437°
近地点 464.259km 464.672km
远地点 466.801km 466.422km
周期 93.906分钟 93.906分钟
每日圈数 15.334496 15.334438
详细信息
固有亮度:
5
最大亮度:
2.5
卫星平台:
Starlink V1.0
覆盖范围:
全球
运营商:
太空探索技术公司
运营商所在国:
美国
制造商(研发单位):
太空探索技术公司
制造商所在国:
美国
使用方式:
暂无
卫星简介
Starlink 计划是 SpaceX 推出的全球卫星互联网项目,通过发射低轨道卫星,为全球尤其是偏远地区提供高速、低延迟的互联网服务。自 2019 年起,Starlink 已部署数千颗卫星,旨在缩小全球数字鸿沟,推动互联网普及。该项目还为军事、航空等行业提供通信支持,带来广泛经济效益。
2D轨道图
3D轨道图
轨道高度分析图
轨道倾角分析图
轨道综合分析图
查看轨道综合分析图
交会数据列表
事件ID 空间交会对象 最接近时刻(TCA) 交会距离 交会风险概率(CRP) 交会风险指数(CRI) 操作
CDM_260906-004403-052006-929924
2026-09-06T
00:44:15+0000
1.588 km
极远距离
5.625331E-6 低风险 0.5
CDM_260905-175904-780406-929922
2026-09-05T
17:59:25+0000
2.821 km
极远距离
1.437073E-6 低风险 0.38
CDM_260905-184604-780406-929922
2026-09-05T
18:46:25+0000
2.911 km
极远距离
1.379536E-6 低风险 0.38
CDM_260907-001605-085106-929921
2026-09-07T
00:16:37+0000
2.913 km
极远距离
1.37384E-6 低风险 0.38
CDM_260905-215804-389106-929924
OBJECT R (43891)
2026-09-05T
21:58:19+0000
2.981 km
极远距离
1.362962E-6 低风险 0.38
CDM_260906-074705-246906-929922
2026-09-06T
07:47:24+0000
2.436 km
极远距离
1.261751E-6 低风险 0.37